www.pogodaiklimat.ru

Погода и климат >> Архив погоды >> Россия >> Новгородская область >> Валдай


ПОГОДА в Валдае

  • Прогноз погоды в Валдае
  • Монитор погоды в Валдае
  • Климат города

АРХИВ ПОГОДЫ в Валдае

Время (UTC), дата Ветер
(напр.,м/с)
 
Видим.   Явления Облачность Т
(С)
Тd
(С)
f
(%)
Тe
(С)
Тes
(С)
Комфортность P
(гПа)
Po
(гПа)
Тmin
(С)
Tmax
(С)
R
(мм)
R24
(мм)
S
(см)
00 16.05 Ю 1 20 км {ливн. осадки} 9/3 600 м
[Cb cap Ac As Cs]
+11.9 +10.5 91 +12 +12 1018.8 994.7
03 16.05 ЮВ 1 20 км местами туман поземный 8/3 600 м
[Sc Ac As Ci fib]
+10.3 +9.7 96 +10 +10 1018.6 994.4 +10.0
06 16.05 Ю 1 20 км {туман} 8/3 600 м
[Sc Ac As Cc]
+14.0 +11.3 84 +14 +18 1018.0 994.1 +10.0
09 16.05 ЮВ 3 20 км 9/3 600 м
[Cu Sc As trans]
+17.6 +8.6 56 +18 +21 1017.3 993.7
12 16.05 Ю 2
{10}
20 км в посл. час ливневой дождь {гроза} 9/8 600 м
[Cb cap As trans Ci fib]
+15.3 +11.8 80 +15 +17 1017.1 993.3
15 16.05 СЗ 1
{13}
20 км гроза без осадков {ливн. осадки} 9/8 300 м
[Cb cap Ac trans Ci fib]
+14.2 +10.8 80 +15 +15 1016.8 992.9 3
18 16.05 ЮЗ 1 20 км в посл. час ливневой дождь {гроза} 9/8 600 м
[Cb cap Ac As Ci fib]
+12.3 +9.3 82 +12 +12 1015.4 991.4 +17.9 9
21 16.05 штиль 0 20 км {туман} 10/6 600 м
[Sc Ac As]
+10.7 +10.0 95 +10 +10 1015.7 991.6
00 17.05 штиль 0 20 км {ливн. осадки, туман} 9/9 600 м
[Cb cap]
+10.8 +10.1 95 +10 +10 1015.0 990.9
03 17.05 штиль 0 10 км слабый ливневой дождь 9/8 600 м
[Cb cap Ac trans Ci fib]
+11.5 +10.8 95 +11 +11 1014.8 990.8 +10.2 6
06 17.05 В 2 20 км {ливн. осадки} 8/6 600 м
[Cu Sc Ac trans Ci fib]
+15.6 +11.6 77 +16 +18 1013.8 990.1 +10.2 0.5
09 17.05 ЮВ 2 20 км 9/5 600 м
[Cb cap Ac trans Ci fib]
+17.8 +12.2 70 +18 +22 1013.5 990.0
12 17.05 ЮВ 1 9000 м слабый ливневой дождь 10/10 600 м
[Cb cap]
+13.8 +12.6 92 +14 +14 1013.6 989.7
15 17.05 В 1 8000 м дымка {ливн. осадки} 9/4 600 м
[Sc Ac As]
+14.9 +13.8 93 +15 +16 1011.5 987.8 3
18 17.05 штиль 0 800 м дымка {ливн. осадки} 9/1 600 м
[Sc Ac trans Cs]
+14.4 +13.1 92 +14 +14 1010.5 986.8 +17.9 3
21 17.05 ЮВ 1 4000 м дымка {туман} 9/0
[Ac trans Cs]
+12.7 +12.1 96 +13 +13 1010.9 987.0
00 18.05 В 1 500 м туман 10/10 180 м
[St]
+12.8 +12.3 97 +13 +13 1009.8 986.0
03 18.05 штиль 0 200 м туман 10/10 150 м
[St]
+12.1 +11.8 98 +11 +11 1009.6 985.7 +11.9
06 18.05 ЮВ 1 1200 м дымка {туман} 10/10 150 м
[St]
+12.6 +12.2 97 +12 +12 1009.5 985.7 +11.9
09 18.05 С 1 8000 м дымка 10/10 300 м
[St]
+15.6 +13.2 86 +16 +16 1009.3 985.8
12 18.05 СВ 1 20 км 9/8 600 м
[Cu Sc Ac trans Cs]
+17.9 +13.3 74 +19 +21 1007.9 984.5
15 18.05 ЮВ 1 20 км 9/3 600 м
[Cb cap Cs]
+20.0 +11.6 58 +23 +25 комфорт 1006.0 982.8
18 18.05 З 1 20 км 9/8 600 м
[Cb cap Cs]
+16.2 +12.8 80 +17 +17 1005.8 982.4 +20.6
21 18.05 З 1 20 км зарница 9/9 600 м
[Cb cap]
+14.3 +12.2 87 +15 +15 1005.3 981.7
00 19.05 ЮЗ 1 20 км 9/9 600 м
[Cb cap Ci sp]
+12.7 +11.0 89 +13 +13 1005.9 982.2
03 19.05 З 1 20 км в посл. час ливневой дождь 10/10 600 м
[Cb cap]
+10.6 +10.0 96 +10 +10 1006.8 982.8 +10.6 6
06 19.05 З 2 5000 м морось {ливн. осадки} 10/10 240 м
[St]
+10.1 +9.1 94 +8 +8 1008.2 984.2 +10.0 6
09 19.05 СЗ 3 7000 м слабый ливневой дождь {морось} 10/10 480 м
[Cb cap]
+9.1 +7.9 92 +7 +7 1010.6 986.5
12 19.05 З 2 8000 м слабый ливневой дождь {морось} 10/10 500 м
[Cb cap]
+9.0 +6.9 87 +7 +7 1012.9 988.7
15 19.05 З 2 8000 м слабый ливневой дождь 10/10 480 м
[Cb cap]
+7.5 +6.1 91 +5 +5 1014.8 990.4
18 19.05 СЗ 2 8000 м морось {ливн. осадки} 10/10 330 м
[St]
+6.8 +5.6 92 +4 +4 1016.3 991.8 +10.1
21 19.05 СЗ 2 20 км в посл. час ливневой дождь {морось} 10/0
[]
+6.6 +5.3 91 +4 +4 1017.8 993.2
00 20.05 СЗ 2 20 км {ливн. осадки, морось} 9/9 600 м
[Sc]
+6.9 +4.2 83 +5 +5 1019.0 994.4
03 20.05 С 2 20 км 5/3 600 м
[Sc Ac As]
+7.1 +3.1 76 +5 +6 1020.7 996.1 +6.3 0.6
06 20.05 С 3 20 км 1/0
[Ci fib]
+9.6 +1.7 58 +8 +14 1022.6 998.1 +6.3 0.6
09 20.05 С 4 20 км 3/0
[Ci fib]
+13.6 +0.8 42 +12 +21 1023.7 999.6
12 20.05 С 2 20 км 3/0
[Ci fib]
+16.4 +0.8 35 +17 +27 1023.6 999.7
15 20.05 СЗ 3 20 км ясно +16.9 +0.7 33 +17 +20 1023.9 1000.0
18 20.05 штиль 0 20 км ясно +11.7 +3.9 59 +11 +11 1025.2 1000.9 +17.6
21 20.05 штиль 0 20 км 1/0
[Ci fib]
+6.3 +4.9 91 +5 +5 1027.1 1002.3
00 21.05 штиль 0 20 км 3/0
[Ci fib]
+4.0 +3.4 96 +3 +3 1028.3 1003.2
03 21.05 штиль 0 20 км 8/0
[Ci fib]
+6.5 +5.5 93 +5 +7 1029.5 1004.6 +3.2
06 21.05 В 1 20 км 8/0
[Ci fib]
+16.1 +5.6 50 +17 +24 1029.8 1005.7 +3.2
09 21.05 СВ 2 20 км ясно +19.6 +3.3 34 +21 +34 комфорт 1029.5 1005.7
12 21.05 СВ 2 20 км ясно +21.4 +2.3 28 +21 +33 комфорт 1028.4 1004.8
15 21.05 СВ 1 20 км ясно +21.6 +4.0 32 +22 +26 комфорт 1027.3 1003.7
18 21.05 штиль 0 20 км ясно +16.1 +6.4 53 +16 +16 1027.6 1003.7 +22.3
21 21.05 штиль 0 20 км ясно +9.4 +7.7 89 +9 +9 1028.7 1004.1
00 22.05 штиль 0 20 км ясно +7.3 +6.5 95 +6 +6 1029.2 1004.4
03 22.05 штиль 0 20 км ясно +10.9 +8.8 87 +10 +12 1029.0 1004.5 +6.5
06 22.05 В 1 20 км ясно +18.1 +6.9 48 +19 +28 1027.9 1004.1 +6.5
09 22.05 В 2 20 км 6/0
[Cc]
+20.3 +4.2 35 +22 +34 комфорт 1025.9 1002.3
12 22.05 ЮВ 3 20 км 9/5 600 м
[Cb cap Ac As Cs]
+19.7 +4.2 36 +20 +23 1024.1 1000.5
15 22.05 В 2 20 км в посл. час ливневой дождь 10/10 600 м
[Cb cap]
+14.8 +6.9 59 +15 +15 1023.9 999.9
18 22.05 ЮВ 1 20 км {ливн. осадки} 10/5 600 м
[Cb cap Ac As]
+13.6 +8.6 72 +14 +14 1022.8 998.7 +20.8

 

Местоположение метеостанции Валдай (Новгородская область, Россия): широта 57.99 долгота 33.25 высота над уровнем моря 195 м.

В архиве по умолчанию представлена погода в Валдае за последнюю неделю. Архивные данные за месяц целиком и за предыдущие месяцы, начиная с января 2011 года, Вы можете получить, выбрав интересующий диапазон дат из раскрывающегося списка и нажав кнопку "Ввод!".


*Определитесь, кто Вы:
робот инопланетянин человек

Внимание! Время в таблицах - всемирное. Для получения местного времени необходимо прибавить поправку, которая в Валдае равна 3 ч.

Смотрите также архив погоды в соседних городах и на ближайших метеорологических станциях:

Погода в Бологом (Тверская область, Россия) (48 км)
Погода в Крестцах (Новгородская область, Россия) (53 км)
Погода в Демянске (Новгородская область, Россия) (60 км)
Погода в Боровичах (Новгородская область, Россия) (61 км)
Погода в Вышнем Волочке (Тверская область, Россия) (93 км)
Погода в Осташкове (Тверская область, Россия) (98 км)
Погода в Удомле (Тверская область, Россия) (105 км)
Погода в Охонах (Новгородская область, Россия) (110 км)
Погода в Старой Руссе (Новгородская область, Россия) (114 км)
Погода в Великом Новгороде (Новгородская область, Россия) (131 км)

Пояснения к столбцам:

Ветер - указаны скорость ветра в м/с - средняя за 10 мин, порывы в срок и между сроками (в фигурных скобках) и направление, откуда дует ветер: С - северный, СВ - северо-восточный, В - восточный, ЮВ - юго-восточный, Ю - южный, ЮЗ - юго-западный, З - западный, СЗ - северо-западный.
Видимость - горизонтальная дальность видимости в метрах или километрах. При видимости от 1 до 10 км при отсутствии осадков обычно наблюдается дымка, при ухудшении видимости до 1 км и менее - туман. В сухую погоду видимость может ухудшаться дымом, пылью или мглою.
Явления - указаны атмосферные явления, наблюдавшиеся в срок или в последний час перед сроком; фигурными скобками обозначены явления, наблюдавшиеся между сроками (за 1-3 часа до срока); квадратными скобками обозначены град или гололедные отложения с указанием их диаметра в мм.
Облачность - указаны через наклонную черту общая и нижняя облачность в баллах и высота нижней границы облаков в метрах; квадратными скобками обозначены формы облаков: Ci - перистые, Cs - перисто-слоистые, Cc - перисто-кучевые, Ac - высококучевые, As - высокослоистые, Sc - слоисто-кучевые, Ns - слоисто-дождевые, Cu - кучевые, Cb - кучево-дождевые. Подробнее классификацию облаков см. в Атласе облаков (PDF).
T - Температура воздуха - температура, измеренная на высоте 2 м над землей.
Td - Температура точки росы - температура, при понижении до которой содержащийся в воздухе водяной пар достигнет насыщения.
f - Относительная влажность воздуха - влажноcть воздуха, измеренная на высоте 2 м над землей.
Te - Эффективная температура - температура, которую ощущает одетый по сезону человек в тени. Характеристика душности погоды. При расчете учитывается влияние влажности воздуха и скорости ветра на теплоощущения человека.
Tes - Эффективная температура на солнце - температура, которую ощущает человек, с поправкой на солнечный нагрев. Характеристика знойности погоды. Зависит от высоты солнца над горизонтом, облачности и скорости ветра. Ночью, в пасмурную погоду, а также при ветре 12 м/с и более поправка равна нулю.
P - Атмосферное давление - приведенное к уровню моря атмосферное давление.
Po - Атмосферное давление - измеренное на уровне метеостанции атмосферное давление.
Tmin - Минимальная температура - минимум температуры воздуха на высоте 2 м над землей.
Tmax - Максимальная температура - максимум температуры воздуха на высоте 2 м над землей.
R - Количество осадков - Количество выпавших осадков за период времени, мм. При наведении курсора мыши на число - период времени, за который выпало указанное количество осадков.
R24 - Количество осадков - Количество выпавших осадков за 24 часа, мм.
S - Снежный покров - Высота снежного покрова, см. При наведении курсора мыши на число - состояние снежного покрова и степень покрытия местности в баллах.